FW0220 Weather Reports


Display with metric or nautical units.
time (UTC)temp
F
wind
direction
speed
MPH
gust
MPH
rain 1hr
in
rain 24hr
in
rain mn
in
humidity
%
barometer
mb
20210917233850 70 150 0.0 0.0 0.00 0.00 0.00 90 1027.3
20210917233349 70 150 0.0 0.0 0.00 0.00 0.00 90 1027.2
20210917232845 70 150 0.0 0.0 0.00 0.00 0.00 90 1027.2
20210917232346 71 150 0.0 0.0 0.00 0.00 0.00 90 1027.2
20210917231846 71 150 0.0 0.0 0.00 0.00 0.00 89 1027.3
20210917231346 71 150 0.0 0.0 0.00 0.00 0.00 89 1027.3
20210917230844 71 150 0.0 0.0 0.00 0.00 0.00 89 1027.4
20210917230344 71 150 0.0 0.0 0.00 0.00 0.00 89 1027.4
20210917225844 71 150 0.0 0.0 0.00 0.00 0.00 89 1027.5
20210917225346 72 150 0.0 0.0 0.00 0.00 0.00 88 1027.6
20210917224842 72 150 0.0 0.0 0.00 0.00 0.00 88 1027.6
20210917224340 72 150 0.0 0.0 0.00 0.00 0.00 88 1027.6
20210917223842 72 150 0.0 0.0 0.00 0.00 0.00 88 1027.7
20210917223341 73 150 0.0 0.0 0.00 0.00 0.00 87 1027.7
20210917222840 73 150 0.0 0.0 0.00 0.00 0.00 87 1027.6
20210917222340 73 150 1.0 3.0 0.00 0.00 0.00 86 1027.6
20210917221842 73 150 1.0 3.0 0.00 0.00 0.00 85 1027.7
20210917221341 73 150 0.0 3.0 0.00 0.00 0.00 86 1027.6
20210917220842 73 150 0.0 0.0 0.00 0.00 0.00 86 1027.6
20210917220339 73 150 0.0 0.0 0.00 0.00 0.00 87 1027.7
20210917215837 73 150 1.0 3.0 0.00 0.00 0.00 86 1027.7
20210917215338 73 150 2.0 3.0 0.00 0.00 0.00 85 1027.6
20210917214836 73 150 2.0 5.0 0.00 0.00 0.00 85 1027.6
20210917214338 74 150 3.0 5.0 0.00 0.00 0.00 84 1027.7
20210917213837 74 150 3.0 5.0 0.00 0.00 0.00 83 1027.7
20210917213337 74 149 3.0 6.0 0.00 0.00 0.00 83 1027.7
20210917212838 74 150 3.0 6.0 0.00 0.00 0.00 82 1027.7
20210917212338 74 152 3.0 6.0 0.00 0.00 0.00 82 1027.7
20210917211834 74 153 3.0 8.0 0.00 0.00 0.00 81 1027.8
20210917211332 74 153 4.0 8.0 0.00 0.00 0.00 82 1027.8
20210917210832 74 147 4.0 8.0 0.00 0.00 0.00 81 1027.8
20210917210335 75 148 3.0 8.0 0.00 0.00 0.00 82 1027.8
20210917205834 75 159 3.0 6.0 0.00 0.00 0.00 82 1027.9
20210917205333 75 159 3.0 6.0 0.00 0.00 0.00 82 1027.9
20210917204833 75 159 3.0 6.0 0.00 0.00 0.00 82 1027.9
20210917204333 75 159 3.0 7.0 0.00 0.00 0.00 81 1027.9
20210917203834 76 159 3.0 7.0 0.00 0.00 0.00 81 1027.9
20210917203329 76 161 2.0 5.0 0.00 0.00 0.00 79 1028.0
20210917202828 77 161 0.0 4.0 0.00 0.00 0.00 80 1028.0
20210917202328 77 161 0.0 0.0 0.00 0.00 0.00 81 1028.0
20210917201828 77 161 0.0 0.0 0.00 0.00 0.00 77 1028.0
20210917201331 77 161 0.0 0.0 0.00 0.00 0.00 77 1028.0
20210917200828 77 161 0.0 0.0 0.00 0.00 0.00 76 1028.0
20210917200328 77 161 0.0 0.0 0.00 0.00 0.00 77 1028.0
20210917195829 77 161 0.0 0.0 0.00 0.00 0.00 78 1028.1
20210917195330 77 161 0.0 1.0 0.00 0.00 0.00 77 1028.1
20210917194826 77 161 1.0 3.0 0.00 0.00 0.00 76 1028.1
20210917194326 77 161 2.0 5.0 0.00 0.00 0.00 75 1028.2
20210917193824 78 161 2.0 5.0 0.00 0.00 0.00 74 1028.2
20210917193329 78 161 1.0 5.0 0.00 0.00 0.00 74 1028.3
20210917192826 77 161 1.0 5.0 0.00 0.00 0.00 74 1028.3
20210917192325 77 161 1.0 2.0 0.00 0.00 0.00 76 1028.3
20210917191826 77 161 0.0 2.0 0.00 0.00 0.00 77 1028.4
20210917191325 77 161 0.0 2.0 0.00 0.00 0.00 79 1028.4
20210917190826 77 161 1.0 3.0 0.00 0.00 0.00 79 1028.4
20210917190322 77 161 2.0 4.0 0.00 0.00 0.00 77 1028.5
20210917185821 77 161 2.0 6.0 0.00 0.00 0.00 77 1028.7
20210917185322 77 161 1.0 6.0 0.00 0.00 0.00 78 1028.7
20210917184821 77 161 1.0 3.0 0.00 0.00 0.00 79 1028.8
20210917184325 77 161 0.0 2.0 0.00 0.00 0.00 79 1028.9
20210917183822 76 161 1.0 6.0 0.00 0.00 0.00 78 1029.0
20210917183320 76 161 1.0 6.0 0.00 0.00 0.00 79 1029.0
20210917182821 76 161 0.0 3.0 0.00 0.00 0.00 79 1029.0
20210917182323 76 161 0.0 4.0 0.00 0.00 0.00 81 1029.1
20210917181816 76 161 0.0 4.0 0.00 0.00 0.00 81 1029.1
20210917181316 76 161 0.0 2.0 0.00 0.00 0.00 80 1029.1
20210917180816 76 161 0.0 2.0 0.00 0.00 0.00 81 1029.1
20210917180317 76 161 0.0 4.0 0.00 0.00 0.00 80 1029.2
20210917175817 76 161 0.0 4.0 0.00 0.00 0.00 81 1029.2
20210917175318 76 161 0.0 0.0 0.00 0.00 0.00 80 1029.3
20210917174818 76 161 0.0 0.0 0.00 0.00 0.00 81 1029.3
20210917174319 75 161 0.0 0.0 0.00 0.00 0.00 82 1029.4
20210917173819 75 161 0.0 0.0 0.00 0.00 0.00 82 1029.4
20210917173316 75 161 0.0 4.0 0.00 0.00 0.00 82 1029.5
20210917172815 75 161 0.0 4.0 0.00 0.00 0.00 82 1029.6
20210917172315 75 161 0.0 0.0 0.00 0.00 0.00 82 1029.6
20210917171814 75 161 0.0 0.0 0.00 0.00 0.00 82 1029.6
20210917171313 74 161 0.0 0.0 0.00 0.00 0.00 83 1029.8
20210917170812 74 161 0.0 0.0 0.00 0.00 0.00 83 1029.8
20210917170313 74 161 0.0 0.0 0.00 0.00 0.00 83 1029.9
20210917165812 74 161 0.0 0.0 0.00 0.00 0.00 83 1030.0
20210917165314 74 161 0.0 0.0 0.00 0.00 0.00 84 1030.1
20210917164810 73 161 0.0 1.0 0.00 0.00 0.00 85 1030.1
20210917164309 73 161 0.0 2.0 0.00 0.00 0.00 85 1030.1
20210917163809 73 161 0.0 3.0 0.00 0.00 0.00 85 1030.1
20210917163310 73 161 0.0 3.0 0.00 0.00 0.00 86 1030.1
20210917162810 72 161 0.0 1.0 0.00 0.00 0.00 86 1030.1
20210917162309 72 161 1.0 4.0 0.00 0.00 0.00 86 1030.1
20210917161810 72 161 1.0 4.0 0.00 0.00 0.00 86 1030.2
20210917161308 72 161 1.0 3.0 0.00 0.00 0.00 86 1030.2
20210917160809 72 161 1.0 3.0 0.00 0.00 0.00 86 1030.3
20210917160306 72 161 2.0 6.0 0.00 0.00 0.00 86 1030.3
20210917155805 72 161 2.0 6.0 0.00 0.00 0.00 86 1030.3
20210917155307 72 161 2.0 5.0 0.00 0.00 0.00 87 1030.3
20210917154807 72 161 2.0 5.0 0.00 0.00 0.00 86 1030.4
20210917154304 72 161 3.0 6.0 0.00 0.00 0.00 87 1030.4
20210917153804 71 161 4.0 8.0 0.00 0.00 0.00 87 1030.5
20210917153305 71 162 5.0 8.0 0.00 0.00 0.00 87 1030.5
20210917152807 71 147 6.0 9.0 0.00 0.00 0.00 87 1030.6
20210917152306 71 143 6.0 9.0 0.00 0.00 0.00 86 1030.5
20210917151801 72 148 5.0 9.0 0.00 0.00 0.00 86 1030.5
20210917151300 72 151 4.0 9.0 0.00 0.00 0.00 87 1030.5
20210917150801 72 121 4.0 9.0 0.00 0.00 0.00 86 1030.4
20210917150300 72 126 5.0 9.0 0.00 0.00 0.00 86 1030.5
20210917145803 72 130 4.0 9.0 0.00 0.00 0.00 85 1030.5
20210917145300 72 128 3.0 9.0 0.00 0.00 0.00 87 1030.5
20210917144800 72 129 4.0 9.0 0.00 0.00 0.00 86 1030.6
20210917144300 72 132 4.0 9.0 0.00 0.00 0.00 86 1030.6
20210917143802 72 123 4.0 9.0 0.00 0.00 0.00 86 1030.6
20210917143255 72 120 4.0 9.0 0.00 0.00 0.00 85 1030.5
20210917142756 72 119 3.0 9.0 0.00 0.00 0.00 86 1030.5
20210917142255 72 136 2.0 7.0 0.00 0.00 0.00 87 1030.6
20210917141754 71 161 1.0 5.0 0.00 0.00 0.00 88 1030.6
20210917141256 71 161 1.0 4.0 0.00 0.00 0.00 88 1030.6
20210917140754 71 161 1.0 4.0 0.00 0.00 0.00 88 1030.6
20210917140255 71 161 1.0 4.0 0.00 0.00 0.00 88 1030.6
20210917135756 71 161 1.0 5.0 0.00 0.00 0.00 89 1030.7
20210917135256 71 161 1.0 5.0 0.00 0.00 0.00 89 1030.7
20210917134752 71 161 0.0 0.0 0.00 0.00 0.00 89 1030.7
20210917134250 71 161 0.0 0.0 0.00 0.00 0.00 89 1030.6
20210917133752 71 161 0.0 0.0 0.00 0.00 0.00 89 1030.7
20210917133252 70 161 0.0 0.0 0.00 0.00 0.00 90 1030.7
20210917132751 70 161 0.0 0.0 0.00 0.00 0.00 90 1030.8
20210917132251 70 161 0.0 0.0 0.00 0.00 0.00 90 1030.8
20210917131752 70 161 0.0 0.0 0.00 0.00 0.00 90 1030.7
20210917131251 70 161 0.0 0.0 0.00 0.00 0.00 90 1030.8
20210917130752 70 161 0.0 0.0 0.00 0.00 0.00 90 1030.8
20210917130247 70 161 0.0 0.0 0.00 0.00 0.00 90 1030.8
20210917125747 69 161 0.0 0.0 0.00 0.00 0.00 91 1030.8
20210917125247 69 161 0.0 0.0 0.00 0.00 0.00 91 1030.8
20210917124747 69 161 0.0 0.0 0.00 0.00 0.00 91 1030.8
20210917124248 69 161 0.0 0.0 0.00 0.00 0.00 91 1030.9
20210917123746 69 161 0.0 0.0 0.00 0.00 0.00 91 1030.9
20210917123247 69 161 0.0 0.0 0.00 0.00 0.00 91 1030.8
20210917122747 69 161 0.0 0.0 0.00 0.00 0.00 91 1030.7
20210917122248 69 161 0.0 0.0 0.00 0.00 0.00 92 1030.7
20210917121744 69 161 1.0 5.0 0.00 0.00 0.00 92 1030.7
20210917121244 69 161 2.0 7.0 0.00 0.00 0.00 92 1030.8
20210917120749 69 161 2.0 7.0 0.00 0.00 0.00 92 1030.9
20210917120242 69 158 1.0 5.0 0.00 0.00 0.00 92 1030.9
20210917115743 68 157 0.0 5.0 0.00 0.00 0.00 92 1030.9
20210917115243 68 163 0.0 0.0 0.00 0.00 0.00 92 1030.9
20210917114742 68 163 0.0 2.0 0.00 0.00 0.00 93 1030.9
20210917114243 68 163 1.0 4.0 0.00 0.00 0.00 93 1030.8
20210917113743 68 163 2.0 6.0 0.00 0.00 0.00 93 1030.9
20210917113239 68 163 1.0 6.0 0.00 0.00 0.00 93 1030.9
20210917112740 68 163 0.0 0.0 0.00 0.00 0.00 93 1030.9
20210917112240 68 163 1.0 3.0 0.00 0.00 0.00 93 1030.8
20210917111738 68 163 2.0 5.0 0.00 0.00 0.00 93 1030.7
20210917111240 68 163 1.0 5.0 0.00 0.00 0.00 93 1030.7
20210917110740 68 163 1.0 5.0 0.00 0.00 0.00 93 1030.6
20210917110239 68 163 1.0 5.0 0.00 0.00 0.00 93 1030.6
20210917105738 68 163 2.0 5.0 0.00 0.00 0.00 93 1030.5
20210917105240 68 163 2.0 5.0 0.00 0.00 0.00 93 1030.5
20210917104736 68 163 1.0 3.0 0.00 0.00 0.00 93 1030.4
20210917104234 68 163 0.0 3.0 0.00 0.00 0.00 93 1030.4
20210917103736 68 163 0.0 0.0 0.00 0.00 0.00 93 1030.3
20210917103234 68 163 0.0 0.0 0.00 0.00 0.00 93 1030.3
20210917102734 68 163 0.0 0.0 0.00 0.00 0.00 94 1030.1
20210917102235 68 163 0.0 0.0 0.00 0.00 0.00 94 1030.1
20210917101736 68 163 0.0 0.0 0.00 0.00 0.00 94 1030.2
20210917101234 68 163 0.0 0.0 0.00 0.00 0.00 94 1030.1
20210917100736 68 163 0.0 0.0 0.00 0.00 0.00 94 1030.2
20210917100231 68 163 0.0 0.0 0.00 0.00 0.00 94 1030.1
20210917095730 68 163 0.0 0.0 0.00 0.00 0.00 93 1030.1
20210917095231 68 163 0.0 0.0 0.00 0.00 0.00 93 1030.1
20210917094730 68 163 0.0 0.0 0.00 0.00 0.00 93 1030.0
20210917094231 68 163 0.0 0.0 0.00 0.00 0.00 94 1030.0
20210917093732 68 163 0.0 3.0 0.00 0.00 0.00 94 1030.0
20210917093233 68 163 0.0 3.0 0.00 0.00 0.00 94 1029.9
20210917092734 68 163 1.0 3.0 0.00 0.00 0.00 93 1029.9
20210917092232 68 163 1.0 3.0 0.00 0.00 0.00 93 1029.8
20210917091732 68 163 1.0 4.0 0.00 0.00 0.00 93 1029.9
20210917091230 68 163 2.0 4.0 0.00 0.00 0.00 93 1029.8
20210917090731 68 163 2.0 5.0 0.00 0.00 0.00 93 1029.8
20210917090230 68 163 3.0 5.0 0.00 0.00 0.00 93 1029.7
20210917085731 68 163 3.0 4.0 0.00 0.00 0.00 93 1029.6
20210917085231 68 163 3.0 5.0 0.00 0.00 0.00 93 1029.5
20210917084732 68 163 3.0 6.0 0.00 0.00 0.00 93 1029.5
20210917084232 68 164 3.0 6.0 0.00 0.00 0.00 93 1029.4
20210917083728 68 173 2.0 4.0 0.00 0.00 0.00 93 1029.4
20210917083226 68 173 3.0 5.0 0.00 0.00 0.00 93 1029.4
20210917082727 68 173 3.0 6.0 0.00 0.00 0.00 93 1029.4
20210917082227 68 173 2.0 6.0 0.00 0.00 0.00 93 1029.3
20210917081727 68 174 2.0 3.0 0.00 0.01 0.00 93 1029.2
20210917081228 68 174 2.0 4.0 0.00 0.01 0.00 93 1029.3
20210917080727 68 174 1.0 4.0 0.00 0.01 0.00 93 1029.2
20210917080228 68 174 0.0 3.0 0.00 0.01 0.00 93 1029.2
20210917075729 68 174 0.0 3.0 0.00 0.01 0.00 93 1029.2
20210917075223 68 174 0.0 3.0 0.00 0.01 0.00 93 1029.2
20210917074723 68 174 1.0 5.0 0.00 0.01 0.00 93 1029.2
20210917074225 68 174 2.0 5.0 0.00 0.01 0.00 93 1029.3
20210917073724 68 174 1.0 4.0 0.00 0.01 0.00 93 1029.3
20210917073223 68 174 2.0 4.0 0.00 0.01 0.00 93 1029.2
20210917072724 68 174 2.0 5.0 0.00 0.01 0.00 93 1029.2
20210917072222 68 174 2.0 5.0 0.00 0.01 0.00 93 1029.2
20210917071724 68 175 2.0 6.0 0.00 0.01 0.00 93 1029.1
20210917071224 68 174 3.0 7.0 0.00 0.01 0.00 93 1029.1
20210917070718 68 175 3.0 7.0 0.00 0.02 0.00 92 1029.2
20210917070220 68 171 3.0 7.0 0.00 0.02 0.00 92 1029.1
20210917065720 68 171 4.0 7.0 0.00 0.02 0.00 92 1029.2
20210917065220 68 170 4.0 6.0 0.00 0.03 0.00 92 1029.1
20210917064719 68 174 4.0 7.0 0.00 0.03 0.00 92 1029.2
20210917064218 68 181 4.0 8.0 0.00 0.04 0.00 92 1029.2
20210917063719 68 178 4.0 8.0 0.00 0.05 0.00 92 1029.2
20210917063219 68 186 4.0 9.0 0.00 0.06 0.00 92 1029.2
20210917062720 68 186 3.0 9.0 0.00 0.06 0.00 92 1029.2
20210917062219 67 175 2.0 6.0 0.00 0.07 0.00 92 1029.3
20210917061718 67 173 3.0 5.0 0.00 0.07 0.00 92 1029.3
20210917061220 67 173 3.0 5.0 0.00 0.08 0.00 92 1029.3
20210917060721 68 173 3.0 6.0 0.00 0.09 0.00 91 1029.3
20210917060218 68 173 3.0 6.0 0.00 0.10 0.00 91 1029.3
20210917055718 68 167 3.0 5.0 0.00 0.11 0.00 91 1029.3
20210917055221 68 167 3.0 7.0 0.00 0.11 0.00 92 1029.4
20210917054720 68 167 3.0 7.0 0.00 0.12 0.00 92 1029.4
20210917054219 68 163 3.0 6.0 0.00 0.13 0.00 92 1029.4
20210917053719 67 163 3.0 6.0 0.00 0.14 0.00 92 1029.5
20210917053220 67 164 2.0 6.0 0.00 0.15 0.00 93 1029.5
20210917052719 67 162 1.0 7.0 0.00 0.18 0.00 93 1029.6
20210917052220 67 162 0.0 7.0 0.00 0.19 0.00 93 1029.5
20210917051718 67 163 0.0 1.0 0.00 0.20 0.00 92 1029.6
20210917051220 67 163 0.0 0.0 0.00 0.21 0.00 92 1029.5
20210917050719 67 163 0.0 0.0 0.00 0.22 0.00 92 1029.5
20210917050220 67 163 0.0 0.0 0.00 0.23 0.00 92 1029.6
20210917045715 67 163 0.0 0.0 0.00 0.24 0.00 92 1029.5
20210917045214 67 163 0.0 0.0 0.00 0.25 0.00 92 1029.5
20210917044717 67 163 0.0 4.0 0.00 0.26 0.00 92 1029.7
20210917044214 67 163 0.0 4.0 0.00 0.26 0.00 92 1029.8
20210917043715 67 163 0.0 0.0 0.00 0.26 0.00 91 1029.8
20210917043215 68 163 0.0 0.0 0.00 0.26 0.00 91 1029.8
20210917042716 68 163 0.0 0.0 0.00 0.26 0.00 90 1029.8
20210917042215 68 163 0.0 0.0 0.00 0.26 0.00 90 1029.9
20210917041716 68 163 1.0 4.0 0.00 0.26 0.00 90 1029.9
20210917041213 68 163 2.0 6.0 0.00 0.26 0.00 89 1029.9
20210917040711 68 163 2.0 6.0 0.00 0.27 0.00 89 1030.0
20210917040210 68 163 1.0 5.0 0.00 0.27 0.00 89 1029.9
20210917035710 68 163 2.0 4.0 0.00 0.28 0.27 89 1030.0
20210917035212 68 163 1.0 4.0 0.00 0.29 0.27 89 1030.0
20210917034713 68 163 1.0 4.0 0.00 0.30 0.27 89 1030.1
20210917034210 68 163 1.0 4.0 0.00 0.31 0.27 89 1030.0
20210917033710 68 163 0.0 2.0 0.00 0.32 0.27 89 1030.0
20210917033212 68 163 0.0 2.0 0.00 0.33 0.27 89 1030.2
20210917032708 68 163 1.0 4.0 0.00 0.34 0.27 89 1030.3
20210917032206 68 163 1.0 4.0 0.00 0.35 0.27 90 1030.3
20210917031708 68 163 0.0 0.0 0.00 0.37 0.27 90 1030.3
20210917031210 68 163 0.0 0.0 0.00 0.41 0.27 89 1030.3
20210917030708 68 163 0.0 0.0 0.00 0.44 0.27 89 1030.3
20210917030207 69 163 0.0 0.0 0.00 0.45 0.27 88 1030.3
20210917025707 69 163 0.0 0.0 0.00 0.48 0.27 88 1030.2
20210917025208 69 163 0.0 3.0 0.00 0.48 0.27 88 1030.3
20210917024709 69 163 1.0 5.0 0.00 0.48 0.27 87 1030.2
20210917024204 69 163 0.0 5.0 0.00 0.48 0.27 87 1030.1
20210917023703 69 163 0.0 0.0 0.00 0.48 0.27 87 1030.2
20210917023204 69 163 0.0 1.0 0.00 0.48 0.27 87 1030.3
20210917022703 69 163 0.0 2.0 0.00 0.48 0.27 86 1030.2
20210917022202 69 163 0.0 2.0 0.00 0.48 0.27 86 1030.3
20210917021705 69 163 0.0 2.0 0.00 0.48 0.27 87 1030.2
20210917021204 69 163 1.0 4.0 0.00 0.49 0.27 87 1030.3
20210917020704 69 163 1.0 4.0 0.00 0.49 0.27 88 1030.2
20210917020206 69 164 0.0 0.0 0.00 0.49 0.27 88 1030.2
20210917015701 69 164 0.0 0.0 0.00 0.49 0.27 88 1030.2
20210917015159 69 164 0.0 0.0 0.00 0.49 0.27 88 1030.2
20210917014700 69 164 0.0 0.0 0.00 0.49 0.27 88 1030.2
20210917014159 69 164 0.0 0.0 0.00 0.49 0.27 88 1030.3
20210917013659 69 164 0.0 0.0 0.00 0.49 0.27 89 1030.3
20210917013158 69 165 0.0 0.0 0.00 0.49 0.27 89 1030.3
20210917012700 68 164 0.0 0.0 0.00 0.49 0.27 89 1030.3
20210917012158 68 165 0.0 0.0 0.00 0.49 0.27 90 1030.4
20210917011700 69 165 0.0 0.0 0.00 0.49 0.27 90 1030.3
20210917011157 69 165 0.0 0.0 0.00 0.49 0.27 89 1030.3
20210917010655 69 164 0.0 0.0 0.00 0.49 0.27 89 1030.3
20210917010154 69 165 0.0 0.0 0.00 0.49 0.27 89 1030.3
20210917005654 69 165 0.0 3.0 0.00 0.49 0.27 89 1030.2
20210917005156 69 165 0.0 3.0 0.00 0.50 0.27 88 1030.1
20210917004655 69 164 0.0 3.0 0.00 0.50 0.27 88 1030.1
20210917004154 69 164 1.0 3.0 0.00 0.50 0.27 87 1030.1
20210917003654 69 165 1.0 3.0 0.00 0.50 0.27 87 1030.0
20210917003156 69 164 2.0 6.0 0.00 0.50 0.27 87 1030.0
20210917002650 69 164 2.0 6.0 0.00 0.50 0.27 87 1029.9
20210917002152 69 159 0.0 4.0 0.00 0.50 0.27 87 1029.8
20210917001652 69 159 0.0 0.0 0.00 0.50 0.27 87 1029.8
20210917001152 69 159 0.0 0.0 0.00 0.50 0.27 87 1029.8
20210917000650 69 159 1.0 5.0 0.00 0.50 0.27 86 1029.7
20210917000151 69 159 3.0 6.0 0.00 0.51 0.27 86 1029.6
20210916235653 69 159 4.0 6.0 0.00 0.52 0.27 86 1029.6
20210916235152 69 157 3.0 6.0 0.00 0.53 0.27 86 1029.5
20210916234652 69 157 1.0 6.0 0.00 0.53 0.27 87 1029.5
20210916234148 69 143 1.0 5.0 0.00 0.53 0.27 87 1029.4